ATLAS 5 CENTAUR DEB, 44896

Orbit data source: Space-Track

ATLAS 5 CENTAUR DEB, 44896 is space debris in HEO originally from a launch on Wed, 17 Oct 2018 UTC launched from the Air Force Eastern Test Range (AFETR). Debris objects in space refer to the collection of defunct objects orbiting the Earth. Examples of debris include non-operational satellites, rocket bodies, and fragments generated from explosions, collisions, or faulty payload assembly.

Loading next visibility...
Identifier
44896, 2018-079BK
Orbit
HEO
Country
Flag of USUS
Related business
Flag of USUnited Launch Alliance/Lockheed Martin (US)
Manufacturer
ULA Decatur
Mission
Spacecraft
Bus & Motor
Unknown
Mass
Unknown
Launch date (UTC)
2018-10-17 (8 years ago)
Launch vehicle
Unknown
Launch site
Air Force Eastern Test Range (AFETR)
Object type
Payload
Rocket body
Debris
Shape & HBR
Unknown shape, 1.1 m
Radar Cross Section
Medium (>0.1 m² and <1 m²)

Expand to show TLE details & history
Last TLE update: 6 days ago

TLE from 6 days ago
0 ATLAS 5 CENTAUR DEB
1 44896U 18079BK  26230.44283077 -.00000103  00000-0  00000-0 0  9999
2 44896  13.4485 338.1302 4629286  74.0620 330.8721  2.00759291 48959
Epoch: 2026-08-18T10:37Z
TLE epoch observation values (Epoch: 2026-08-18T10:37:40.578Z)
Latitude
-0.00001°
Longitude
-148.0615°
Altitude
12,139.459 km
Speed
5.295 km/s
True Right ascension
22h 32m 40s
True Declination
0° 00' 00"
Sunlit
Object was in full shadow at epoch
Visualization orbit readout
Latitude
Unknown
Longitude
Unknown
Altitude
Unknown
Speed
Unknown
Apparent Right ascension
Unknown
Apparent Declination
Unknown
Sunlit
N/A
Visualization observer readout
Local Sidereal Time
15:53:00
Azimuth
Unknown
Elevation
Unknown
Doppler factor
Unknown
Orbital elements
Apogee altitude
32,455.729 km
Perigee altitude
7,878.58 km
Semi-major axis
26,545.291 km
Eccentricity
0.46293
Inclination
13.4485°
RAAN
338.1302°
Arg. of periapsis
74.062°
True anomaly
285.8374°
Mean anomaly
330.8721°
Eccentric anomaly
310.79093°
Mean motion
0.50184 °/min
Orbital period
717.37 mins
BSTAR
0
Loading maneuver chart data...
Computing Atmospheric mass density...

Documentation

Showing up to 5 results
|